Showing default

MANDRAKE 2 ABLE, 48907

Orbit data source: Space-Track

MANDRAKE 2 ABLE, 48907 is an American payload satellite in SSO that was launched on Wed, 30 Jun 2021 UTC via an FALCON 9 launch vehicle from the Air Force Eastern Test Range (AFETR). Payload-class satellites include a variety of spacecraft equipped with specific instruments for various scientific and technological missions. These include communications satellites like Starlink; space stations such as the ISS; scientific satellites like the Hubble; Earth observation satellites from companies like Planet Labs, Umbra, and HawkEye 360; GPS; miniature CubeSats for education and research; and military/defense satellites.

Loading next visibility...
Identifier
48907, 2021-059AE
Orbit
SSO
Country
Flag of USUS
Related business
Manufacturer
Astro Digital
Mission
Operational Defense Communications
Bus & Motor
CORVUS-XL, Unknown motor
Mass
23 kg wet, 23 kg dry
Launch date (UTC)
2021-06-30 (4 years ago)
Launch vehicle
FALCON 9
Launch site
Air Force Eastern Test Range (AFETR)
Object type
Payload
Rocket body
Debris
Shape & HBR
Box + 1 Pan, 1.5 m
Radar Cross Section
0.375 m², Medium (>0.1 m² and < 1m²)

Expand to show TLE details & history
Last TLE update: 8 hours ago

TLE from 8 hours ago
0 MANDRAKE 2 ABLE
1 48907U 21059AE  25346.96780581  .00025414  00000-0  51105-3 0  9990
2 48907  97.6981 158.7536 0004536 331.5763  28.5237 15.46607320248264
Epoch: 2025-12-12T23:13Z
TLE epoch observation values (Epoch: 2025-12-12T23:13:38.421Z)
Latitude
-0.00012°
Longitude
88.4417°
Altitude
427.065 km
Speed
7.657 km/s
True Right ascension
10h 35m 00s
True Declination
0° 00' 00"
Sunlit
Object was in daylight at epoch
Visualization orbit readout
Latitude
Unknown
Longitude
Unknown
Altitude
Unknown
Speed
Unknown
Apparent Right ascension
Unknown
Apparent Declination
Unknown
Sunlit
N/A
Visualization observer readout
Local Sidereal Time
05:21:14
Azimuth
Unknown
Elevation
Unknown
Doppler factor
Unknown
Orbital elements
Apogee altitude
426.688 km
Perigee altitude
420.517 km
Semi-major axis
6,801.74 km
Eccentricity
0.00045
Inclination
97.6981°
RAAN
158.7536°
Arg. of periapsis
331.5763°
True anomaly
28.54853°
Mean anomaly
28.5237°
Eccentric anomaly
28.53612°
Mean motion
3.86913 °/min
Orbital period
93.04 mins
BSTAR
0.00051105
Loading maneuver chart data...
Computing Atmospheric mass density...
Loading historical data...
Loading historical data...
Loading historical data...
Loading historical data...
Loading historical data...
Loading historical data...
Loading historical data...

Documentation

Showing up to 5 results
|